SCP
0 0 0 0 0 0 0 0 0 0 0 0 0 0 0 0 0 0 0 0 0 0 0 0 0 0 0 0 0 0 0 0 0 0 0 0 0 0 0 0 0 0 0 0
0 0 0 0 0 0 0 0 0 0 0 0 0 0 0 0 0 0 0 0 0 0 0 0 0 0 0 0 0 0 0 0 0 0 0 0 0 0 0 0 0 0 0 0
0 0 0 0 0 0 0 0 0 0 0 0 0 0 0 0 0 0 0 0 0 0 0 0 0 0 0 0 0 0 0 0 0 0 0 0 0 0 0 0 0 0 0 0
0 0 0 0 0 0 0 0 0 0 0 0 0 0 0 0 0 0 0 0 0 0 0 0 0 0 0 0 0 0 0 0 0 0 0 0 0 0 0 0 0 0 0 0
0 0 0 0 0 0 0 0 0 0 0 0 0 0 0 0 0 0 0 0 0 0 0 0 0 0 0 0 0 0 0 0 0 0 0 0 0 0 0 0 0 0 0 0
0 0 0 0 0 0 0 0 0 0 0 0 0 0 0 0 0 0 0 0 0 0 0 0 0 0 0 0 0 0 0 0 0 0 0 0 0 0 0 0 0 0 0 0
0 0 0 0 0 0 0 0 0 0 0 0 0 0 0 0 0 0 0 0 0 0 0 0 0 0 0 0 0 0 0 0 0 0 0 0 0 0 0 0 0 0 0 0
0 0 0 0 0 0 0 0 0 0 0 0 0 0 0 0 0 0 0 0 0 0 0 0 0 0 0 0 0 0 0 0 0 0 0 0 0 0 0 0 0 0 0 0
0 0 0 0 0 0 0 0 0 0 0 0 0 0 0 0 0 0 0 0 0 0 0 0 0 0 0 0 0 0 0 0 0 0 0 0 0 0 0 0 0 0 0 0
0 0 0 0 0 0 0 0 0 0 0 0 0 0 0 0 0 0 0 0 0 0 0 0 0 0 0 0 0 0 0 0 0 0 0 0 0 0 0 0 0 0 0 0
0 0 0 0 0 0 0 0 0 0 0 0 0 0 0 0 0 0 0 0 0 0 0 0 0 0 0 0 0 0 0 0 0 0 0 0 0 0 0 0 0 0 0 0
0 0 0 0 0 0 0 0 0 0 0 0 0 0 0 0 0 0 0 0 0 0 0 0 0 0 0 0 0 0 0 0 0 0 0 0 0 0 0 0 0 0 0 0
0 0 0 0 0 0 0 0 0 0 0 0 0 0 0 0 0 0 0 0 0 0 0 0 0 0 0 0 0 0 0 0 0 0 0 0 0 0 0 0 0 0 0 0
0 0 0 0 0 0 0 0 0 0 0 0 0 0 0 0 0 0 0 0 0 0 0 0 0 0 0 0 0 0 0 0 0 0 0 0 0 0 0 0 0 0 0 0
0 0 0 0 0 0 0 0 0 0 0 0 0 0 0 0 0 0 0 0 0 0 0 0 0 0 0 0 0 0 0 0 0 0 0 0 0 0 0 0 0 0 0 0
0 0 0 0 0 0 0 0 0 0 0 0 0 0 0 0 0 0 0 0 0 0 0 0 0 0 0 0 0 0 0 0 0 0 0 0 0 0 0 0 0 0 0 0
0 0 0 0 0 0 0 0 0 0 0 0 0 0 0 0 0 0 0 0 0 0 0 0 0 0 0 0 0 0 0 0 0 0 0 0 0 0 0 0 0 0 0 0
0 0 0 0 0 0 0 0 0 0 0 0 0 0 0 0 0 0 0 0 0 0 0 0 0 0 0 -0 -0 0 -0 -0 0 0 0 0 0 0 0 0 0 0 0 0
0 0 0 0 0 0 0 0 0 0 0 0 0 0 0 0 0 0 0 0 0 0 0 0 0 0 0 0 -0 0 -0 -0 -0 0 0 0 0 0 0 0 0 0 0 0
0 0 0 0 0 0 0 0 0 0 0 0 0 0 0 0 0 0 0 0 0 0 0 0 0 0 0 0 0 0 0 0 0 0 0 0 0 0 0 0 0 0 0 0
0 0 0 0 0 0 0 0 0 0 0 0 0 0 0 0 0 0 0 0 0 0 0 0 0 0 0 0 0 0 0 0 0 0 0 0 0 0 0 0 0 0 0 0
0 0 0 0 0 0 0 0 0 0 0 0 0 0 0 0 0 0 0 0 0 0 0 0 0 0 0 0 0 0 0 0 0 0 0 0 0 0 0 0 0 0 0 0
0 0 0 0 0 0 0 0 0 0 0 0 0 0 0 0 0 0 0 0 0 0 0 0 0 0 0 0 0 0 0 0 0 0 0 0 0 0 0 0 0 0 0 0
0 0 0 0 0 0 0 0 0 0 0 0 0 0 0 0 0 0 0 0 0 0 0 0 0 0 0 0 0 0 0 0 0 0 0 0 0 0 0 0 0 0 0 0
0 0 0 0 0 0 0 0 0 0 0 0 0 0 -0 -0 0 0 0 0 0 0 0 0 0 0 0 0 0 0 0 0 0 0 0 0 0 -0 0 0 0 0 0 0
0 0 0 0 0 0 0 0 0 0 0 0 0 -0 -0 -0 -0 -0 0 0 0 0 0 0 0 0 0 0 0 0 0 0 0 -0 -0 0 0 0 0 0 0 0 0 0
0 0 0 0 0 0 0 0 0 0 0 -0 -0 -0 -0 -0 -0 0 0 0 0 0 0 0 0 0 0 0 0 0 0 0 0 -0 -0 0 0 0 0 0 0 0 0 0
Wind_Speed
3 3 4 3 3 5 4 7 8 7 5 4 2 1 0 1 1 2 2 2 2 3 3 3 3 3 3 3 3 4 4 3 3 3 4 4 4 4 4 5 5 5 5 4
1 1 4 3 2 4 3 3 3 2 2 1 1 2 3 3 3 3 3 2 1 1 2 3 4 4 4 4 4 4 4 3 3 3 4 4 4 4 5 5 4 4 4 4
1 0 3 1 1 2 3 2 4 4 4 1 2 3 3 2 3 3 2 2 1 1 2 3 3 4 4 4 5 5 3 3 3 4 5 4 5 5 5 4 4 4 3 3
3 3 3 4 1 2 4 2 1 2 2 2 3 3 3 3 3 4 4 3 2 1 1 2 3 3 4 4 5 5 4 3 3 4 5 5 5 5 5 4 4 3 3 3
4 4 1 2 0 2 3 0 0 3 4 4 4 4 4 6 5 4 3 3 2 2 1 2 3 4 5 5 5 5 4 4 3 5 5 5 5 5 4 5 4 4 3 3
4 4 6 5 1 0 3 1 1 3 4 3 2 2 1 4 5 6 5 3 3 3 3 3 3 5 6 5 4 4 4 4 4 5 5 5 5 5 4 4 4 4 4 4
4 3 4 2 3 1 5 5 1 3 3 2 1 2 2 3 4 5 5 5 4 5 4 3 3 5 6 5 3 3 4 4 5 5 5 5 5 4 5 5 5 5 5 5
4 3 5 2 1 3 3 0 2 3 3 4 5 5 4 4 5 5 6 6 6 6 6 5 4 5 6 4 4 5 6 6 5 5 5 5 6 5 5 5 6 5 5 5
4 4 1 1 0 1 1 2 2 3 4 6 6 5 4 4 5 5 6 6 5 6 7 7 6 6 6 5 5 7 8 7 7 7 6 5 6 5 5 4 4 4 4 4
1 1 0 1 2 3 3 3 3 4 5 6 6 5 5 5 5 5 6 5 6 7 8 7 7 7 6 5 6 8 8 7 7 8 7 7 6 5 5 4 4 4 5 4
1 1 1 1 3 3 5 6 6 6 6 6 8 7 6 6 6 6 6 5 6 7 8 8 8 8 7 7 7 9 8 8 8 8 8 9 9 8 7 6 5 5 5 4
5 5 4 2 2 3 5 5 6 7 8 7 7 8 8 7 6 6 6 6 8 8 8 8 8 8 8 7 8 9 9 8 6 6 7 7 9 10 16 13 15 14 11 8
3 3 4 4 3 3 5 5 6 8 9 8 8 8 9 8 7 7 8 8 9 9 8 8 9 9 8 7 9 9 9 8 6 7 6 6 7 8 8 11 16 17 15 13
5 6 5 3 3 4 7 8 8 9 9 9 9 9 9 10 9 9 9 8 8 9 10 9 10 10 8 8 9 9 9 9 8 6 6 7 7 7 6 7 7 7 10 13
3 3 5 6 6 7 8 9 10 10 10 10 9 10 10 11 10 9 8 8 10 11 10 10 11 9 7 8 10 9 8 6 7 7 7 7 7 7 7 8 7 6 6 7
6 7 8 8 8 8 8 10 11 10 10 11 10 10 10 11 10 9 9 9 10 10 8 9 9 7 7 8 9 8 8 11 9 7 7 7 7 7 7 7 7 6 5 4
9 8 8 9 8 8 8 8 9 10 11 11 10 10 10 11 11 10 9 9 9 9 8 8 7 6 7 8 8 6 6 8 11 8 7 6 6 6 6 6 6 5 5 5
5 6 7 10 10 10 9 9 10 11 10 11 10 10 10 11 10 9 8 8 10 10 9 7 7 7 8 8 7 6 6 6 6 7 6 6 6 6 6 6 6 6 5 5
7 8 8 9 9 10 10 10 10 10 10 10 11 10 10 9 8 8 8 9 10 8 7 6 9 9 8 8 8 6 7 7 7 7 6 7 7 6 6 6 6 5 5 5
8 9 10 10 10 10 11 11 11 11 9 11 12 11 10 9 8 9 10 9 5 3 3 5 7 7 7 8 9 6 7 7 7 7 6 6 6 6 6 6 5 5 5 5
10 11 11 11 11 11 11 12 12 11 10 10 11 11 10 8 7 7 8 7 4 5 6 8 6 5 6 7 9 7 7 7 7 6 6 6 6 6 5 5 5 5 4 4
9 10 11 11 12 11 10 10 11 12 11 10 10 10 10 9 8 8 7 4 3 5 5 5 5 7 8 8 6 7 7 7 6 5 5 5 5 5 5 5 4 4 4 4
9 10 11 11 12 12 11 10 10 10 10 10 9 9 8 6 5 6 5 3 3 7 6 5 8 11 11 7 6 6 7 7 6 5 5 5 4 4 4 4 4 3 3 3
10 10 11 11 12 12 11 9 9 9 9 9 8 8 8 7 5 4 4 6 7 8 6 7 10 11 10 6 6 6 6 5 5 5 5 4 4 4 3 3 3 3 3 3
10 11 11 11 11 9 10 10 10 10 10 8 8 7 5 5 5 5 5 6 8 8 6 8 10 10 7 5 5 5 5 4 4 4 4 4 3 3 3 3 3 3 2 2
9 8 8 8 8 7 7 7 7 7 7 7 6 5 5 5 6 5 5 6 8 8 6 4 5 6 5 5 5 5 4 4 4 4 4 3 3 3 3 2 3 2 2 2
10 9 8 8 7 6 7 7 7 7 6 7 7 5 5 5 5 6 6 5 5 5 4 4 4 4 4 4 4 4 3 3 3 3 3 3 2 2 2 2 2 1 1 1
Wind_Direction
189 180 154 152 162 157 156 171 174 212 214 256 266 237 292 23 47 68 82 113 158 175 168 157 153 158 159 158 148 148 150 160 177 172 159 153 156 158 156 154 159 157 159 167
76 105 126 101 86 140 134 143 159 145 230 290 8 75 67 52 58 62 61 70 91 156 163 165 167 168 158 150 139 132 142 153 150 149 147 145 144 141 140 134 130 139 154 163
162 246 92 91 247 155 144 150 154 181 214 133 89 69 63 55 59 56 49 59 89 134 180 177 178 167 163 151 137 132 139 141 133 130 128 132 133 123 121 122 122 128 132 133
124 117 170 237 295 110 112 69 64 138 141 139 121 93 59 44 54 47 30 22 14 20 147 158 154 144 138 132 135 135 137 137 133 130 129 123 118 117 113 107 109 109 110 117
114 133 155 272 58 122 131 269 28 133 118 106 113 86 53 36 39 39 28 17 356 356 75 120 136 140 130 131 136 136 139 139 137 132 127 125 126 124 118 115 111 106 100 103
119 139 204 224 251 263 114 252 209 141 140 140 99 86 67 29 27 22 16 17 25 33 57 90 109 124 125 129 130 138 140 135 131 132 132 133 129 118 111 112 112 106 92 84
131 162 241 273 305 105 158 228 178 139 139 133 115 140 117 56 36 25 20 23 39 50 52 62 98 112 117 120 127 125 113 110 110 116 120 119 114 112 114 112 105 97 88 72
136 161 229 337 58 158 200 349 97 111 111 108 106 97 83 66 51 36 34 37 47 57 50 46 69 96 100 99 98 100 100 97 93 90 99 105 106 101 103 108 103 99 89 73
176 195 243 348 75 327 122 113 102 110 116 120 113 104 85 70 60 48 46 49 53 66 61 51 52 74 86 76 90 95 91 91 90 83 78 83 95 100 96 95 99 97 93 82
131 206 301 34 46 34 63 92 101 112 118 118 115 108 94 83 72 61 55 56 62 70 67 57 52 61 72 78 88 92 89 88 89 87 80 71 67 72 78 80 92 94 93 88
145 180 111 48 57 59 70 81 89 90 95 108 114 107 100 89 78 72 64 57 65 73 74 66 59 59 62 72 85 87 85 83 81 82 84 77 67 55 62 54 75 94 90 89
200 199 165 156 104 90 95 91 95 97 89 84 97 104 99 90 82 79 72 65 66 65 66 64 63 60 57 69 85 92 88 82 81 84 86 88 90 75 57 66 66 69 76 86
167 135 120 116 100 100 104 98 94 96 103 100 89 94 94 90 81 77 74 71 70 68 66 64 63 58 52 61 75 83 88 87 85 86 88 90 91 95 87 66 61 60 62 70
128 117 113 114 117 110 110 105 99 93 92 96 97 93 91 87 80 73 69 68 73 71 65 64 64 56 50 66 77 79 82 83 84 82 83 83 84 84 87 89 78 60 51 59
99 113 129 123 114 109 110 110 106 101 97 93 92 91 90 88 81 73 66 67 71 67 61 61 61 49 44 66 76 78 81 83 81 82 82 83 86 86 85 83 82 77 67 54
107 107 119 123 121 118 117 119 118 113 108 103 97 94 91 89 84 75 65 65 70 66 58 61 58 45 50 66 73 71 74 84 86 85 84 84 85 87 87 86 82 75 66 54
131 135 136 134 130 127 123 122 120 116 112 108 104 102 97 91 83 74 66 63 69 66 58 59 56 51 58 67 74 76 76 79 81 81 80 84 87 88 88 88 86 80 66 50
134 141 146 142 138 130 121 116 115 114 113 112 108 100 95 93 90 85 77 73 70 59 45 43 53 62 62 64 73 78 81 78 77 81 81 81 83 86 89 89 87 83 73 59
123 131 132 130 129 125 121 117 115 110 111 110 105 98 95 94 93 88 80 73 69 60 31 34 58 66 64 68 77 78 85 86 82 79 82 84 83 82 83 85 84 79 74 66
111 116 119 119 118 119 119 117 114 110 110 111 107 102 95 92 93 91 84 73 57 51 39 56 63 63 62 68 76 77 83 87 87 84 83 83 84 82 80 80 79 76 71 65
114 116 116 116 113 111 115 118 117 113 110 111 111 109 104 97 92 92 91 79 35 40 60 63 64 63 65 73 74 79 83 85 86 86 87 88 87 83 80 77 75 71 66 62
116 117 115 114 111 108 109 112 114 114 110 107 107 108 105 98 91 80 70 75 60 65 68 65 67 75 78 77 77 80 83 85 85 86 87 89 90 88 82 78 74 69 63 59
115 115 115 114 113 110 107 109 112 114 113 113 114 114 109 102 97 101 89 56 67 77 76 74 84 82 79 76 77 80 83 85 86 86 87 87 88 89 86 82 74 68 62 57
111 113 115 114 113 112 111 110 107 106 106 104 106 111 112 104 81 70 95 96 90 87 80 83 84 82 80 79 80 80 81 83 85 86 86 85 84 83 81 79 75 67 62 56
112 114 116 117 115 115 114 110 104 101 100 95 91 88 87 97 108 105 97 95 96 91 84 78 80 80 78 79 80 81 82 84 92 95 90 89 87 84 79 75 73 69 59 50
108 107 105 104 109 114 115 113 110 110 111 106 96 91 91 90 97 97 92 91 91 91 86 78 77 77 78 79 81 83 84 85 85 84 89 90 89 87 84 80 75 67 58 48
97 97 97 93 90 98 106 109 111 113 116 118 111 103 103 100 98 98 96 93 92 90 87 83 81 83 86 86 85 83 83 84 86 89 91 91 94 93 94 92 81 71 59 42